TimeMDT,TemperatureF,Dew PointF,Humidity,Sea Level PressureIn,VisibilityMPH,Wind Direction,Wind SpeedMPH,Gust SpeedMPH,PrecipitationIn,Events,Conditions,WindDirDegrees,DateUTC
12:53 AM,39.0,24.1,55,29.96,10.0,NNE,3.5,-,N/A,,Clear,30,2013-05-07 06:53:00
1:53 AM,36.0,24.1,62,29.94,10.0,NW,4.6,-,N/A,,Clear,320,2013-05-07 07:53:00
2:53 AM,35.1,24.1,64,29.93,10.0,NNW,3.5,-,N/A,,Clear,330,2013-05-07 08:53:00
3:53 AM,35.1,23.0,61,29.92,10.0,NW,3.5,-,N/A,,Clear,310,2013-05-07 09:53:00
4:53 AM,35.1,24.1,64,29.91,10.0,NW,4.6,-,N/A,,Clear,320,2013-05-07 10:53:00
5:53 AM,37.9,28.0,68,29.90,10.0,NW,4.6,-,N/A,,Clear,320,2013-05-07 11:53:00
6:53 AM,37.9,30.0,73,29.91,10.0,Calm,Calm,-,N/A,,Clear,0,2013-05-07 12:53:00
7:53 AM,51.1,35.1,54,29.87,10.0,Calm,Calm,-,N/A,,Clear,0,2013-05-07 13:53:00
8:53 AM,59.0,30.9,35,29.85,10.0,SW,5.8,-,N/A,,Clear,230,2013-05-07 14:53:00
9:53 AM,61.0,30.9,32,29.85,10.0,Variable,6.9,-,N/A,,Mostly Cloudy,0,2013-05-07 15:53:00
10:53 AM,60.1,27.0,28,29.85,10.0,Variable,4.6,-,N/A,,Overcast,0,2013-05-07 16:53:00
11:53 AM,62.1,30.9,31,29.84,10.0,Variable,5.8,-,N/A,,Mostly Cloudy,0,2013-05-07 17:53:00
12:53 PM,60.1,30.9,33,29.86,10.0,SSE,5.8,-,N/A,,Overcast,160,2013-05-07 18:53:00
1:53 PM,54.0,37.0,53,29.91,10.0,NE,11.5,-,0.00,Rain,Light Rain,50,2013-05-07 19:53:00
2:53 PM,57.0,36.0,45,29.89,10.0,North,5.8,-,0.00,,Overcast,360,2013-05-07 20:53:00
3:53 PM,62.1,34.0,35,29.84,10.0,ENE,8.1,-,N/A,,Clear,60,2013-05-07 21:53:00
4:53 PM,64.0,30.9,29,29.81,10.0,Variable,5.8,23.0,N/A,,Scattered Clouds,0,2013-05-07 22:53:00
5:53 PM,63.0,27.0,26,29.81,10.0,Calm,Calm,-,N/A,,Clear,0,2013-05-07 23:53:00
6:53 PM,63.0,28.0,27,29.81,10.0,Calm,Calm,-,N/A,,Mostly Cloudy,0,2013-05-08 00:53:00
7:53 PM,57.9,34.0,41,29.80,10.0,ESE,8.1,-,N/A,,Overcast,110,2013-05-08 01:53:00
8:53 PM,48.9,39.0,69,29.84,10.0,NE,4.6,-,N/A,,Clear,50,2013-05-08 02:53:00
9:53 PM,46.0,39.0,76,29.85,10.0,Calm,Calm,-,N/A,,Clear,0,2013-05-08 03:53:00
10:53 PM,42.1,37.9,85,29.87,10.0,NW,3.5,-,N/A,,Partly Cloudy,310,2013-05-08 04:53:00
11:53 PM,42.1,37.0,82,29.86,10.0,NW,4.6,-,N/A,,Clear,320,2013-05-08 05:53:00